K5TCS Weather Reports


Display with metric or nautical units.
time (UTC)temp
F
wind
direction
speed
MPH
gust
MPH
rain 1hr
in
rain 24hr
in
rain mn
in
humidity
%
barometer
mb
20260906100017 60 0.0 0.0 0.00 0.30 0.00 13 1025.9
20260906095017 60 0.0 0.0 0.00 0.30 0.00 12 1026.0
20260906094017 61 0.0 0.0 0.00 0.30 0.00 12 1026.0
20260906093037 60 0.0 0.0 0.00 0.30 0.00 12 1025.9
20260906092017 60 0.0 0.0 0.00 0.30 0.00 12 1025.6
20260906091017 60 0.0 0.0 0.00 0.30 0.00 12 1025.6
20260906090017 60 0.0 0.0 0.00 0.30 0.00 12 1025.6
20260906085017 60 0.0 0.0 0.00 0.30 0.00 12 1025.6
20260906084037 60 0.0 0.0 0.00 0.30 0.00 12 1025.6
20260906083036 60 0.0 0.0 0.00 0.30 0.00 12 1025.7
20260906082017 60 0.0 0.0 0.00 0.30 0.00 12 1027.5
20260906081016 61 0.0 0.0 0.00 0.30 0.00 12 1027.7
20260906080016 61 0.0 0.0 0.00 0.30 0.00 12 1027.6
20260906075017 61 0.0 0.0 0.00 0.30 0.00 12 1027.7
20260906074017 61 0.0 0.0 0.00 0.30 0.00 12 1028.1
20260906073017 61 0.0 0.0 0.00 0.30 0.00 13 1028.1
20260906072037 61 0.0 0.0 0.00 0.30 0.00 12 1028.2
20260906071017 61 0.0 0.0 0.00 0.30 0.00 13 1027.4
20260906070016 62 0.0 0.0 0.00 0.30 0.00 13 1027.9
20260906065016 62 0.0 0.0 0.00 0.30 0.00 12 1028.1
20260906064016 62 0.0 0.0 0.00 0.30 0.00 12 1027.2
20260906063016 62 0.0 0.0 0.00 0.30 0.00 13 1027.3
20260906062016 63 0.0 0.0 0.00 0.30 0.00 12 1027.3
20260906061016 63 0.0 0.0 0.00 0.30 0.00 12 1027.2
20260906060016 63 0.0 0.0 0.00 0.30 0.30 12 1027.3
20260906055016 63 0.0 0.0 0.00 0.30 0.30 12 1027.2
20260906054016 63 0.0 0.0 0.00 0.30 0.30 12 1029.1
20260906053016 63 0.0 0.0 0.00 0.30 0.30 12 1029.1
20260906052016 64 0.0 0.0 0.00 0.30 0.30 12 1029.6
20260906051016 64 0.0 0.0 0.00 0.30 0.30 12 1031.4
20260906050036 64 0.0 0.0 0.00 0.30 0.30 12 1031.4
20260906045016 63 0.0 0.0 0.00 0.30 0.30 12 1030.9
20260906044016 64 0.0 0.0 0.00 0.30 0.30 12 1031.0
20260906043016 64 0.0 0.0 0.00 0.30 0.30 12 1030.9
20260906042036 63 0.0 0.0 0.00 0.30 0.30 12 1030.5
20260906041015 63 0.0 0.0 0.00 0.30 0.30 11 1030.0
20260906040016 63 0.0 0.0 0.00 0.30 0.30 12 1029.8
20260906035015 63 0.0 0.0 0.00 0.30 0.30 12 1029.8
20260906034036 63 0.0 0.0 0.00 0.30 0.30 12 1028.8
20260906033015 63 0.0 2.0 0.00 0.30 0.30 12 1028.7
20260906032016 65 0.0 3.0 0.00 0.30 0.30 13 1029.1
20260906031015 65 293 1.0 4.0 0.00 0.30 0.30 14 1027.6
20260906030015 65 248 2.0 4.0 0.00 0.30 0.30 12 1027.1
20260906025015 64 270 2.0 5.0 0.00 0.30 0.30 11 1027.0
20260906024055 64 270 1.0 4.0 0.00 0.32 0.30 11 1026.5
20260906023018 64 0.0 3.0 0.00 0.41 0.30 11 1026.6
20260906022017 64 0.0 3.0 0.00 0.65 0.30 11 1026.0
20260906021017 64 0.0 2.0 0.00 0.69 0.30 11 1025.4
20260906020017 65 0.0 3.0 0.00 0.69 0.30 12 1025.3
20260906015017 64 248 1.0 3.0 0.00 0.69 0.30 11 1025.1
20260906014017 63 0.0 0.0 0.00 0.69 0.30 10 1024.7
20260906013017 63 0.0 0.0 0.01 0.69 0.30 10 1024.7
20260906012017 63 0.0 0.0 0.01 0.69 0.30 10 1024.5
20260906011017 63 0.0 2.0 0.01 0.69 0.30 10 1023.9
20260906010037 64 248 1.0 3.0 0.01 0.69 0.30 10 1024.4
20260906005017 64 270 1.0 3.0 0.01 0.69 0.30 10 1023.7
20260906004017 64 248 2.0 3.0 0.01 0.69 0.30 10 1023.7
20260906003017 64 270 1.0 4.0 0.00 0.68 0.29 10 1023.8
20260906002017 64 270 2.0 4.0 0.00 0.68 0.29 10 1023.9
20260906001017 64 270 1.0 3.0 0.00 0.68 0.29 10 1024.5
20260906000017 63 248 1.0 4.0 0.00 0.68 0.29 10 1024.1
20260905235017 64 248 2.0 5.0 0.01 0.68 0.29 10 1024.3
20260905234017 64 0.0 3.0 0.01 0.68 0.29 10 1025.0
20260905233017 64 248 1.0 3.0 0.01 0.68 0.29 10 1025.1
20260905232037 64 270 1.0 4.0 0.01 0.68 0.29 9 1025.0
20260905231017 64 248 1.0 4.0 0.01 0.68 0.29 9 1025.2
20260905230017 64 0.0 3.0 0.01 0.68 0.29 9 1025.3
20260905225017 65 0.0 4.0 0.00 0.67 0.28 10 1025.2
20260905224057 65 0.0 7.0 0.00 0.67 0.28 10 1025.2
20260905223037 65 0.0 0.0 0.00 0.67 0.28 10 1025.3
20260905222057 65 0.0 0.0 0.01 0.67 0.28 10 1025.3
20260905221037 65 0.0 0.0 0.01 0.67 0.28 10 1025.3
20260905220017 65 0.0 0.0 0.01 0.67 0.28 10 1025.2
20260905215017 65 0.0 0.0 0.02 0.70 0.28 10 1025.0
20260905214037 65 0.0 3.0 0.02 0.74 0.28 10 1025.1
20260905213037 64 315 1.0 4.0 0.04 0.78 0.28 10 1025.3
20260905212017 64 0.0 0.0 0.08 0.78 0.27 10 1025.6
20260905211017 63 0.0 0.0 0.08 0.78 0.27 10 1025.0
20260905210017 63 0.0 0.0 0.09 0.81 0.27 10 1025.1
20260905205016 63 0.0 2.0 0.08 0.84 0.26 10 1024.9
20260905204037 63 0.0 3.0 0.08 0.84 0.26 12 1025.3
20260905203036 63 0.0 4.0 0.06 0.83 0.24 13 1025.5
20260905202016 63 180 1.0 6.0 0.01 0.84 0.19 17 1025.5
20260905201016 65 203 2.0 9.0 0.01 0.86 0.19 19 1026.1
20260905200016 68 203 3.0 9.0 0.00 0.85 0.18 17 1026.7
20260905195016 70 203 2.0 7.0 0.00 0.85 0.18 18 1027.2
20260905194017 70 248 2.0 9.0 0.00 0.85 0.18 20 1027.7
20260905193016 70 248 3.0 9.0 0.00 0.85 0.18 19 1027.7
20260905192017 71 270 2.0 7.0 0.00 0.86 0.18 21 1027.8
20260905191056 71 293 3.0 8.0 0.00 0.86 0.18 22 1028.4
20260905190016 70 293 2.0 5.0 0.01 0.86 0.18 16 1027.7
20260905185016 68 293 2.0 5.0 0.13 0.86 0.18 14 1027.4
20260905184016 67 293 2.0 6.0 0.15 0.86 0.18 16 1026.9
20260905183016 65 270 3.0 6.0 0.18 0.86 0.18 12 1026.2
20260905182016 64 270 3.0 5.0 0.18 0.86 0.18 11 1025.6
20260905181036 62 293 3.0 6.0 0.18 0.86 0.18 11 1025.0
20260905180016 62 270 3.0 10.0 0.17 0.85 0.17 11 1024.9
20260905175016 64 248 3.0 7.0 0.05 0.73 0.05 15 1025.3
20260905174016 67 270 2.0 5.0 0.03 0.71 0.03 27 1026.4
20260905173016 69 270 3.0 9.0 0.00 0.68 0.00 37 1027.1
20260905172016 72 270 3.0 9.0 0.00 0.68 0.00 44 1027.6
20260905171016 78 135 1.0 5.0 0.00 0.68 0.00 40 1029.2
20260905170016 80 90 1.0 4.0 0.00 0.68 0.00 38 1029.6
20260905165016 80 0.0 1.0 0.00 0.68 0.00 37 1029.7
20260905164016 79 0.0 7.0 0.00 0.68 0.00 36 1029.8
20260905163016 79 0.0 0.0 0.00 0.68 0.00 36 1029.9
20260905162016 78 0.0 0.0 0.00 0.68 0.00 36 1030.1
20260905161016 76 0.0 0.0 0.00 0.68 0.00 36 1029.7
20260905160016 76 0.0 0.0 0.00 0.68 0.00 34 1029.8
20260905155016 76 0.0 0.0 0.00 0.68 0.00 33 1029.4
20260905154016 75 0.0 0.0 0.00 0.68 0.00 31 1029.4
20260905153016 74 0.0 0.0 0.00 0.68 0.00 28 1029.5
20260905152036 72 0.0 0.0 0.00 0.68 0.00 24 1029.1
20260905151016 70 0.0 0.0 0.00 0.68 0.00 18 1028.5
20260905150016 68 0.0 0.0 0.00 0.68 0.00 16 1027.8
20260905145015 66 0.0 0.0 0.00 0.68 0.00 14 1027.3
20260905144035 65 0.0 0.0 0.00 0.68 0.00 15 1027.8
20260905143015 64 0.0 0.0 0.00 0.68 0.00 15 1027.8
20260905142016 64 0.0 0.0 0.00 0.68 0.00 13 1027.7
20260905141015 63 0.0 0.0 0.00 0.68 0.00 12 1028.0
20260905140015 61 0.0 0.0 0.00 0.68 0.00 12 1027.6
20260905135016 60 0.0 0.0 0.00 0.68 0.00 13 1027.1
20260905134016 60 0.0 2.0 0.00 0.68 0.00 13 1027.3
20260905133015 59 0.0 3.0 0.00 0.68 0.00 13 1027.2
20260905132015 59 248 1.0 3.0 0.00 0.68 0.00 13 1027.0
20260905131038 59 0.0 0.0 0.00 0.68 0.00 13 1027.0
20260905130017 59 0.0 0.0 0.00 0.68 0.00 12 1026.6
20260905125017 58 0.0 0.0 0.00 0.68 0.00 12 1026.3
20260905124017 58 0.0 0.0 0.00 0.68 0.00 12 1026.2
20260905123017 58 0.0 0.0 0.00 0.68 0.00 13 1025.7
20260905122157 57 0.0 0.0 0.00 0.68 0.00 13 1025.6
20260905121017 57 0.0 0.0 0.00 0.68 0.00 14 1025.4
20260905120017 58 0.0 2.0 0.00 0.68 0.00 14 1025.6
20260905115017 58 0.0 0.0 0.00 0.68 0.00 15 1025.6
20260905114017 59 0.0 0.0 0.00 0.68 0.00 15 1026.0
20260905113017 60 0.0 3.0 0.00 0.68 0.00 15 1026.0
20260905112017 60 0.0 2.0 0.00 0.68 0.00 14 1026.0
20260905111017 60 248 1.0 3.0 0.00 0.68 0.00 14 1025.4
20260905110017 59 270 1.0 3.0 0.00 0.68 0.00 15 1024.8
20260905105017 61 248 2.0 4.0 0.00 0.68 0.00 15 1025.3
20260905104037 61 270 2.0 4.0 0.00 0.68 0.00 13 1024.7
20260905103017 60 0.0 3.0 0.00 0.68 0.00 14 1024.1
20260905102017 60 0.0 0.0 0.00 0.68 0.00 14 1024.1
20260905101017 60 0.0 3.0 0.00 0.68 0.00 14 1024.0